sat.trackr.live / text

‹ back to catalog

TIANLIAN 1-05

NORAD 49011 · 2021-063A

PAYLOAD ACTIVE UNKNOWN

§ Identity

Operator
Country
PRC
Launch date
2021-07-06
Launch site
XICLF
Launch vehicle
Mass (kg)
RCS (m²)

Purposes: comms

External: N2YO · Heavens-Above · Gunter

§ Orbital elements

Epoch: 2026-09-04T04:07:03.735264Z

Period
1,436.09 min
Inclination
1.7904°
Eccentricity
0.0003326
Mean motion
1.00272393 rev/d
Perigee alt
35,772.4 km
Apogee alt
35,800.4 km
Semi-major
42,164.6 km
B*
0.0000e+0
RAAN
79.9008°
Arg perigee
135.9637°
Mean anomaly
205.9908°
Rev number
1,886

§ Raw data

TIANLIAN 1-051 49011U 21063A   26247.17157101  .00000102  00000+0  00000+0 0  99922 49011   1.7904  79.9008 0003326 135.9637 205.9908  1.00272393 18862

JSON: /api/v1/satellites/49011 · /tle

For live sub-satellite position, see the globe view (requires WebGL).

§ Visibility from observer

Set your observer location to see the next 7 days of passes ≥ 10°. The values pass through the URL so the page stays shareable.

No JS? Fill the form by hand. The geolocation button needs JavaScript.